�������l�o���
Date,Time,MP-1(��Sv/h),MP-2(��Sv/h),MP-3(��Sv/h),MP-4(��Sv/h),MP-5(��Sv/h),MP-6(��Sv/h),MP-7(��Sv/h),MP-8(��Sv/h),����,����(m/s),���J
2023/06/09,00:00,0.555,0.822,0.495,1.010,0.729,0.327,0.575,0.540,��,6.0,�L
2023/06/09,00:10,0.554,0.819,0.496,1.009,0.727,0.328,0.573,0.540,��,5.9,�L
2023/06/09,00:20,0.553,0.821,0.495,1.011,0.726,0.326,0.573,0.540,��,5.6,�L
2023/06/09,00:30,0.552,0.819,0.494,1.010,0.725,0.326,0.574,0.539,��쐼,5.3,�L
2023/06/09,00:40,0.552,0.817,0.493,1.007,0.726,0.328,0.574,0.539,��쐼,5.1,�L
2023/06/09,00:50,0.551,0.813,0.493,1.006,0.723,0.327,0.571,0.538,��,4.9,�L
2023/06/09,01:00,0.550,0.811,0.491,1.004,0.718,0.326,0.572,0.536,��쓌,3.5,�L
2023/06/09,01:10,0.546,0.807,0.492,0.998,0.718,0.327,0.571,0.536,��쓌,7.4,�L
2023/06/09,01:20,0.547,0.806,0.491,0.998,0.715,0.326,0.569,0.536,��쓌,7.7,�L
2023/06/09,01:30,0.546,0.807,0.490,0.996,0.715,0.326,0.571,0.536,��쓌,9.2,�L
2023/06/09,01:40,0.546,0.805,0.491,0.996,0.714,0.325,0.570,0.535,�쓌,7.3,�L
2023/06/09,01:50,0.544,0.804,0.489,0.995,0.714,0.325,0.569,0.534,�쓌,7.8,�L
2023/06/09,02:00,0.544,0.802,0.488,0.993,0.714,0.324,0.571,0.536,�쓌,8.1,�L
2023/06/09,02:10,0.545,0.805,0.489,0.991,0.713,0.326,0.569,0.537,�쓌,7.6,�L
2023/06/09,02:20,0.544,0.802,0.488,0.990,0.713,0.325,0.568,0.535,���쓌,7.6,�L
2023/06/09,02:30,0.545,0.802,0.489,0.991,0.713,0.326,0.568,0.535,���쓌,7.4,�L
2023/06/09,02:40,0.545,0.802,0.487,0.993,0.710,0.326,0.569,0.536,���쓌,7.2,�L
2023/06/09,02:50,0.542,0.800,0.488,0.989,0.712,0.324,0.569,0.534,���쓌,7.4,�L
2023/06/09,03:00,0.542,0.801,0.489,0.989,0.710,0.325,0.570,0.535,���쓌,6.4,�L
2023/06/09,03:10,0.544,0.800,0.488,0.989,0.709,0.322,0.569,0.536,���쓌,7.6,�L
2023/06/09,03:20,0.540,0.798,0.488,0.987,0.706,0.323,0.568,0.537,���쓌,7.5,�L
2023/06/09,03:30,0.542,0.800,0.489,0.987,0.707,0.322,0.569,0.535,-,CALM,�L
2023/06/09,03:40,0.542,0.795,0.488,0.988,0.703,0.323,0.569,0.535,�쓌,9.2,�L
2023/06/09,03:50,0.542,0.795,0.489,0.981,0.701,0.326,0.566,0.534,���쓌,6.8,�L
2023/06/09,04:00,0.539,0.789,0.486,0.976,0.701,0.324,0.566,0.531,�쓌,9.6,�L
2023/06/09,04:10,0.537,0.786,0.484,0.970,0.695,0.323,0.563,0.532,���쓌,5.9,�L
2023/06/09,04:20,0.537,0.787,0.486,0.967,0.697,0.324,0.564,0.531,���쓌,8.9,�L
2023/06/09,04:30,0.537,0.784,0.488,0.965,0.694,0.324,0.562,0.530,���쓌,11.6,�L
2023/06/09,04:40,0.537,0.786,0.485,0.963,0.697,0.324,0.562,0.530,�쓌,11.6,�L
2023/06/09,04:50,0.539,0.786,0.486,0.960,0.695,0.324,0.563,0.531,�쓌,8.4,�L
2023/06/09,05:00,0.538,0.786,0.484,0.960,0.696,0.324,0.562,0.531,�쓌,8.9,�L
2023/06/09,05:10,0.536,0.784,0.483,0.959,0.696,0.322,0.562,0.530,���쓌,9.3,�L
2023/06/09,05:20,0.535,0.784,0.484,0.959,0.694,0.323,0.563,0.530,���쓌,9.1,�L
2023/06/09,05:30,0.534,0.783,0.482,0.958,0.694,0.322,0.562,0.530,���쓌,6.6,�L
2023/06/09,05:40,0.533,0.781,0.479,0.955,0.690,0.321,0.561,0.529,���쓌,5.4,�L
2023/06/09,05:50,0.529,0.775,0.479,0.954,0.686,0.318,0.558,0.527,��,5.5,�L
2023/06/09,06:00,0.528,0.774,0.479,0.948,0.683,0.319,0.557,0.526,��,7.0,�L
2023/06/09,06:10,0.527,0.770,0.479,0.943,0.679,0.320,0.556,0.524,��,7.8,�L
2023/06/09,06:20,0.526,0.771,0.480,0.942,0.677,0.320,0.555,0.523,-,CALM,�L
2023/06/09,06:30,0.522,0.765,0.476,0.940,0.676,0.320,0.556,0.517,-,CALM,�L
2023/06/09,06:40,0.521,0.766,0.476,0.937,0.673,0.319,0.554,0.484,���쓌,10.6,�L
2023/06/09,06:50,0.521,0.762,0.474,0.933,0.666,0.316,0.551,0.450,�쓌,9.6,�L
2023/06/09,07:00,0.519,0.760,0.475,0.931,0.665,0.317,0.552,0.432,��쓌,4.4,�L
2023/06/09,07:10,0.523,0.764,0.476,0.935,0.669,0.320,0.552,0.431,��쓌,8.2,�L
2023/06/09,07:20,0.525,0.765,0.478,0.935,0.668,0.321,0.553,0.432,�쓌,8.0,�L
2023/06/09,07:30,0.528,0.766,0.480,0.935,0.668,0.321,0.553,0.433,�쓌,9.8,�L
2023/06/09,07:40,0.526,0.768,0.477,0.937,0.670,0.320,0.554,0.435,���쓌,9.3,�L
2023/06/09,07:50,0.525,0.765,0.477,0.933,0.669,0.321,0.554,0.438,�쓌,12.0,�L
2023/06/09,08:00,0.521,0.759,0.477,0.932,0.663,0.319,0.551,0.440,�쓌,9.8,�L
2023/06/09,08:10,0.523,0.764,0.476,0.932,0.661,0.320,0.552,0.441,-,CALM,�L
2023/06/09,08:20,0.523,0.762,0.477,0.930,0.662,0.321,0.553,0.438,�쓌,10.9,�L
2023/06/09,08:30,0.524,0.764,0.479,0.931,0.663,0.321,0.551,0.440,���쓌,10.9,�L
2023/06/09,08:40,0.526,0.764,0.479,0.933,0.662,0.321,0.554,0.445,���쓌,11.3,�L
2023/06/09,08:50,0.528,0.767,0.478,0.933,0.664,0.321,0.554,0.454,���쓌,11.6,�L
2023/06/09,09:00,0.527,0.767,0.480,0.935,0.665,0.322,0.553,0.471,���쓌,10.5,�L
2023/06/09,09:10,0.529,0.766,0.478,0.936,0.666,0.321,0.556,0.492,���쓌,11.7,�L
2023/06/09,09:20,0.528,0.768,0.478,0.937,0.662,0.320,0.553,0.512,���쓌,11.6,�L
2023/06/09,09:30,0.524,0.764,0.476,0.933,0.661,0.319,0.552,0.519,���쓌,11.6,�L
2023/06/09,09:40,0.522,0.763,0.475,0.930,0.661,0.320,0.551,0.519,���쓌,10.5,�L
2023/06/09,09:50,0.519,0.761,0.475,0.931,0.659,0.317,0.552,0.519,���쓌,8.6,�L
2023/06/09,10:00,0.520,0.759,0.472,0.928,0.654,0.317,0.550,0.517,���쓌,7.2,�L
2023/06/09,10:10,0.516,0.756,0.471,0.925,0.654,0.317,0.550,0.504,��,5.9,�L
2023/06/09,10:20,0.517,0.756,0.470,0.926,0.653,0.316,0.549,0.495,���k��,6.4,�L
2023/06/09,10:30,0.515,0.757,0.470,0.925,0.652,0.314,0.550,0.500,���k��,4.7,�L
2023/06/09,10:40,0.513,0.755,0.469,0.925,0.653,0.315,0.549,0.508,���k��,3.9,�L
2023/06/09,10:50,0.514,0.753,0.468,0.925,0.653,0.313,0.548,0.513,�k�k��,4.4,�L
2023/06/09,11:00,0.514,0.756,0.469,0.924,0.651,0.315,0.551,0.514,�k�k��,5.5,�L
2023/06/09,11:10,0.516,0.753,0.468,0.925,0.651,0.314,0.550,0.517,�k,6.0,�L
2023/06/09,11:20,0.515,0.755,0.468,0.923,0.654,0.314,0.551,0.518,�k,6.1,�L
2023/06/09,11:30,0.514,0.756,0.470,0.925,0.651,0.313,0.551,0.519,�k�k��,6.7,�L
2023/06/09,11:40,0.515,0.756,0.470,0.924,0.653,0.315,0.550,0.519,�k�k��,7.2,�L
2023/06/09,11:50,0.516,0.756,0.469,0.924,0.653,0.315,0.552,0.520,�k��,8.4,�L
2023/06/09,12:00,0.516,0.759,0.468,0.926,0.654,0.313,0.550,0.520,�k�k��,8.6,�L
2023/06/09,12:10,0.518,0.760,0.470,0.927,0.657,0.314,0.550,0.522,�k��,8.1,�L
2023/06/09,12:20,0.516,0.761,0.469,0.929,0.654,0.314,0.553,0.521,�k��,9.6,�L
2023/06/09,12:30,0.517,0.760,0.468,0.930,0.654,0.315,0.554,0.521,�k�k��,8.1,�L
2023/06/09,12:40,0.518,0.761,0.470,0.932,0.655,0.311,0.553,0.521,�k��,8.5,�L
2023/06/09,12:50,0.519,0.764,0.470,0.935,0.658,0.312,0.553,0.521,�k��,8.4,�L
2023/06/09,13:00,0.519,0.763,0.471,0.933,0.659,0.312,0.552,0.522,�k��,7.9,�L
2023/06/09,13:10,0.518,0.762,0.471,0.932,0.658,0.314,0.552,0.522,�k��,10.3,�L
2023/06/09,13:20,0.518,0.762,0.471,0.932,0.658,0.314,0.553,0.523,�k��,9.2,�L
2023/06/09,13:30,0.518,0.762,0.470,0.934,0.659,0.313,0.553,0.522,�k�k��,9.1,�L
2023/06/09,13:40,0.518,0.764,0.471,0.936,0.660,0.315,0.554,0.523,�k��,9.3,�L
2023/06/09,13:50,0.521,0.762,0.469,0.933,0.659,0.315,0.555,0.521,�k�k��,9.1,�L
2023/06/09,14:00,0.522,0.763,0.471,0.935,0.660,0.315,0.554,0.523,�k��,9.1,�L
2023/06/09,14:10,0.519,0.766,0.470,0.936,0.661,0.315,0.554,0.523,�k��,9.0,�L
2023/06/09,14:20,0.520,0.766,0.470,0.938,0.662,0.315,0.556,0.524,�k�k��,11.0,��
2023/06/09,14:30,0.521,0.766,0.471,0.936,0.662,0.315,0.555,0.522,�k��,11.3,��
2023/06/09,14:40,0.520,0.770,0.471,0.937,0.663,0.313,0.554,0.524,�k��,9.6,�L
2023/06/09,14:50,0.522,0.769,0.471,0.936,0.662,0.315,0.556,0.525,�k��,11.7,��
2023/06/09,15:00,0.521,0.768,0.474,0.938,0.664,0.315,0.555,0.524,�k��,10.9,�L
2023/06/09,15:10,0.520,0.767,0.472,0.935,0.663,0.313,0.556,0.524,�k�k��,9.4,��
2023/06/09,15:20,0.522,0.769,0.473,0.940,0.665,0.316,0.555,0.524,�k�k��,10.9,��
2023/06/09,15:30,0.523,0.768,0.474,0.937,0.664,0.316,0.554,0.523,�k�k��,11.3,��
2023/06/09,15:40,0.522,0.769,0.473,0.939,0.665,0.315,0.556,0.524,�k�k��,11.4,��
2023/06/09,15:50,0.522,0.771,0.473,0.941,0.665,0.316,0.556,0.525,�k�k��,11.7,��
2023/06/09,16:00,0.522,0.770,0.475,0.941,0.666,0.316,0.557,0.526,�k�k��,13.0,��
2023/06/09,16:10,0.522,0.770,0.474,0.938,0.666,0.317,0.555,0.523,�k�k��,12.2,��
2023/06/09,16:20,0.523,0.772,0.474,0.938,0.668,0.315,0.556,0.526,�k�k��,9.7,��
2023/06/09,16:30,0.524,0.770,0.473,0.940,0.668,0.315,0.558,0.525,�k�k��,7.1,��
2023/06/09,16:40,0.524,0.772,0.476,0.940,0.669,0.316,0.556,0.524,�k�k��,10.5,��
2023/06/09,16:50,0.523,0.773,0.475,0.940,0.669,0.316,0.558,0.525,�k�k��,8.2,�L
2023/06/09,17:00,0.523,0.770,0.476,0.940,0.667,0.315,0.557,0.526,�k�k��,8.5,��
2023/06/09,17:10,0.523,0.771,0.476,0.939,0.669,0.317,0.556,0.524,�k�k��,7.9,��
2023/06/09,17:20,0.523,0.773,0.474,0.940,0.671,0.317,0.557,0.525,�k�k��,8.1,��
2023/06/09,17:30,0.524,0.773,0.475,0.941,0.670,0.315,0.556,0.524,�k�k��,8.9,��
2023/06/09,17:40,0.523,0.773,0.475,0.944,0.668,0.316,0.556,0.525,�k�k��,7.0,��
2023/06/09,17:50,0.523,0.772,0.475,0.942,0.670,0.317,0.557,0.526,�k�k��,7.6,��
2023/06/09,18:00,0.523,0.772,0.476,0.942,0.669,0.315,0.557,0.524,�k�k��,6.9,��
2023/06/09,18:10,0.524,0.773,0.477,0.943,0.670,0.316,0.558,0.525,�k�k��,7.4,��
2023/06/09,18:20,0.525,0.773,0.474,0.943,0.671,0.315,0.557,0.526,�k�k��,7.2,��
2023/06/09,18:30,0.523,0.774,0.476,0.943,0.669,0.315,0.557,0.526,�k�k��,7.0,��
2023/06/09,18:40,0.524,0.775,0.477,0.945,0.668,0.316,0.557,0.526,�k,6.9,��
2023/06/09,18:50,0.524,0.776,0.477,0.943,0.672,0.316,0.557,0.526,�k�k��,7.4,��
2023/06/09,19:00,0.525,0.775,0.479,0.946,0.672,0.317,0.558,0.525,�k�k��,8.0,��
2023/06/09,19:10,0.525,0.776,0.479,0.945,0.672,0.315,0.557,0.526,�k�k��,7.3,��
2023/06/09,19:20,0.524,0.776,0.477,0.945,0.673,0.315,0.557,0.528,�k�k��,7.7,��
2023/06/09,19:30,0.524,0.778,0.478,0.945,0.673,0.316,0.557,0.528,�k�k��,7.9,��
2023/06/09,19:40,0.526,0.778,0.478,0.945,0.674,0.315,0.558,0.528,�k,6.4,��
2023/06/09,19:50,0.525,0.778,0.478,0.945,0.673,0.316,0.558,0.528,�k�k��,7.1,��
2023/06/09,20:00,0.526,0.777,0.479,0.944,0.673,0.317,0.557,0.528,�k�k��,6.4,��
2023/06/09,20:10,0.525,0.777,0.478,0.944,0.674,0.316,0.558,0.529,�k�k��,7.2,��
2023/06/09,20:20,0.527,0.777,0.478,0.945,0.675,0.317,0.559,0.528,�k�k��,6.7,��
2023/06/09,20:30,0.525,0.778,0.476,0.946,0.674,0.317,0.557,0.528,�k�k��,6.4,��
2023/06/09,20:40,0.527,0.778,0.477,0.948,0.675,0.317,0.557,0.528,�k�k��,5.9,��
2023/06/09,20:50,0.526,0.777,0.477,0.948,0.675,0.317,0.557,0.528,�k�k��,5.8,��
2023/06/09,21:00,0.525,0.776,0.478,0.946,0.677,0.317,0.557,0.527,�k,6.2,��
2023/06/09,21:10,0.526,0.778,0.479,0.946,0.675,0.317,0.558,0.527,�k,5.7,��
2023/06/09,21:20,0.526,0.778,0.478,0.946,0.675,0.318,0.559,0.528,�k,4.9,��
2023/06/09,21:30,0.525,0.776,0.480,0.945,0.675,0.317,0.558,0.527,�k,4.7,��
2023/06/09,21:40,0.526,0.777,0.479,0.946,0.676,0.317,0.559,0.529,�k�k��,4.9,��
2023/06/09,21:50,0.524,0.778,0.479,0.944,0.676,0.318,0.559,0.529,�k,5.3,��
2023/06/09,22:00,0.527,0.778,0.479,0.946,0.677,0.317,0.558,0.529,�k,4.9,��
2023/06/09,22:10,0.526,0.776,0.478,0.946,0.675,0.319,0.560,0.529,�k,4.2,��
2023/06/09,22:20,0.525,0.778,0.477,0.945,0.677,0.318,0.562,0.528,�k�k��,4.2,��
2023/06/09,22:30,0.528,0.777,0.479,0.946,0.676,0.319,0.559,0.528,�k�k��,4.0,��
2023/06/09,22:40,0.526,0.779,0.479,0.946,0.678,0.318,0.559,0.529,�k�k��,3.1,��
2023/06/09,22:50,0.527,0.777,0.478,0.946,0.676,0.317,0.559,0.529,�k,1.7,��
2023/06/09,23:00,0.527,0.778,0.477,0.946,0.677,0.318,0.560,0.529,�k,2.0,��
2023/06/09,23:10,0.527,0.777,0.477,0.947,0.676,0.320,0.560,0.529,�k,1.7,��
2023/06/09,23:20,0.526,0.778,0.478,0.945,0.678,0.318,0.560,0.528,�k�k��,0.9,��
2023/06/09,23:30,0.528,0.779,0.478,0.946,0.679,0.318,0.560,0.528,�k�k��,1.5,��
2023/06/09,23:40,0.527,0.778,0.476,0.945,0.677,0.319,0.559,0.528,�k�k��,1.7,��
2023/06/09,23:50,0.526,0.777,0.479,0.946,0.677,0.318,0.561,0.530,�k,0.9,��
